Regional Weather Roundup
Issued by NWS Northern Indiana

Home | Current Version | Previous Version | Text Only | Print | Product List | Glossary Off
Versions: 1 2 3 4 5 6 7 8 9 10 11 12 13 14 15 16 17 18 19 20 21 22 23 24 25 26 27 28 29 30 31 32 33 34 35 36 37 38 39 40 41 42 43 44 45 46 47 48 49 50

000
ASUS43 KIWX 291000
RWRIWX

KIWX WEATHER ROUNDUP
NATIONAL WEATHER SERVICE NORTHERN INDIANA
600 AM EDT WED MAR 29 2017

NOTE: "FAIR" INDICATES FEW OR NO CLOUDS BELOW 12,000 FEET WITH NO
SIGNIFICANT WEATHER AND/OR OBSTRUCTIONS TO VISIBILITY.

* THESE STATIONS ARE NOT UNDER NWS QUALITY CONTROL. THEY ALSO MAY NOT
  REPORT WEATHER SUCH AS PRECIPITATION OR FOG.

INZ001>027-291100-
NORTHERN INDIANA

CITY           SKY/WX    TMP DP  RH WIND       PRES   REMARKS
GARY*          FOG       36  36 100 NE5       30.23S VSB 1/4
KNOX*          CLEAR     34  30  86 NE3       30.21S
SOUTH BEND     CLEAR     35  34  96 NE6       30.22R WCI  30
GOSHEN         CLEAR     35  31  85 NE7       30.21R WCI  29
MONTICELLO*    CLOUDY    46  40  81 E6        30.18S
ANGOLA*        CLEAR     34  34 100 E3        30.21R
FORT WAYNE     PTCLDY    38  34  85 E12       30.21R
PERU/GRISSOM   PTCLDY    43  42  97 NE10      30.17R

$$
INZ028>050-291100-
CENTRAL INDIANA

CITY           SKY/WX    TMP DP  RH WIND       PRES   REMARKS
LAFAYETTE      CLOUDY    46  43  89 E12       30.17R
KOKOMO*        PTCLDY    43  40  89 NE9       30.19R
MUNCIE*        MOCLDY    44  40  85 NE8       30.18R
INDIANAPOLIS   CLOUDY    49  44  83 E8        30.14R

$$
MIZ043>046-050>051-056>058-064>065-071>073-077>080-291100-
SOUTHWEST LOWER MICHIGAN

CITY           SKY/WX    TMP DP  RH WIND       PRES   REMARKS
BATTLE CREEK   CLEAR     34  33  96 CALM      30.24R
BENTON HARBOR  CLEAR     29  26  89 CALM      30.24R
COLDWATER*     CLEAR     32  32 100 NE3       30.22R
HILLSDALE*     CLEAR     32  30  93 NE6       30.21S WCI  26
HOLLAND        CLEAR     31  28  89 CALM      30.25R
GRAND RAPIDS   CLEAR     32  32 100 NE5       30.24S WCI  27
KALAMAZOO      CLEAR     31  28  89 N3        30.24R
STURGIS*       CLEAR     33  32  96 NE6       30.22R WCI  27
THREE RIVERS*  FAIR      32  32 100 CALM      30.24R

$$
OHZ001>008-015>018-024>025-291100-
NORTHWEST OHIO

CITY           SKY/WX    TMP DP  RH WIND       PRES   REMARKS
DEFIANCE       MOCLDY    35  33  92 NE5       30.22S WCI  31
FINDLAY        CLOUDY    39  32  76 NE9       30.19S
TOLEDO EXPRESS CLEAR     34  32  92 N5        30.22F WCI  30
TOLEDO METCALF CLEAR     36  33  89 NE6       30.23S
LIMA           CLOUDY    38  35  89 NE13      30.19R

$$
AND FOR LAKE MICHIGAN COASTAL AND OPEN LAKE BUOY OBSERVATIONS

STATION/POSITION TEMP    WIND        PRES    VSBY  WAVE
                 AIR SEA DIR/SP/G                  HT/PER
                 (F)     (DEG/KT/KT) (MB)    (MI)  (FT/S)
CALUMET HARBOR    34      30/  6/  8 1023.0S
MICHIGAN CITY     37      40/  7/  7   N/A
BURNS HARBOR      35      70/  7/  9 1023.7S
SAINT JOSEPH      34      60/  1/  3 1024.4

$$
&&




USA.gov is the U.S. government's official web portal to all federal, state and local government web resources and services.